This is the latest recevied weather packets stored in our database for station/object F5GJJ-13. If no packets are shown the sender has not sent any weather packets the latest 10 day(s).
| Time | Temp. | Humidity | Pressure | Rain* | Wind** | Luminosity | Snow |
|---|---|---|---|---|---|---|---|
| 1778092633 | 15° C | 73% | 1010.2 hPa | 0 mm | - | - | - |
| 1778091960 | 15.56° C | 70% | 1009.6 hPa | 0 mm | - | - | - |
| 1778091674 | 15.56° C | 69% | 1009.6 hPa | 0 mm | - | - | - |
| 1778090715 | 16.11° C | 68% | 1010.6 hPa | 0 mm | - | - | - |
| 1778090160 | 16.67° C | 66% | 1010.6 hPa | 0 mm | - | - | - |
| 1778089753 | 17.22° C | 65% | 1010.6 hPa | 0 mm | - | - | - |
| 1778088794 | 17.22° C | 64% | 1010.6 hPa | 0 mm | - | - | - |
| 1778088360 | 17.22° C | 62% | 1010.6 hPa | 0 mm | - | - | - |
| 1778087835 | 18.33° C | 61% | 1010.6 hPa | 0 mm | - | - | - |
| 1778086875 | 18.89° C | 60% | 1010.6 hPa | 0 mm | - | - | - |
| 1778086561 | 18.89° C | 60% | 1010.6 hPa | 0 mm | - | - | - |
| 1778085914 | 18.33° C | 61% | 1010.6 hPa | 0 mm | - | - | - |
| 1778084954 | 18.33° C | 61% | 1010.6 hPa | 0 mm | - | - | - |
| 1778084763 | 18.33° C | 61% | 1010.6 hPa | 0 mm | - | - | - |
| 1778083994 | 18.33° C | 59% | 1010.6 hPa | 0 mm | - | - | - |
| 1778083035 | 18.89° C | 59% | 1010.6 hPa | 0 mm | - | - | - |
| 1778082960 | 18.89° C | 59% | 1010.6 hPa | 0 mm | - | - | - |
| 1778082073 | 18.33° C | 59% | 1010.6 hPa | 0 mm | - | - | - |
| 1778081160 | 18.33° C | 59% | 1010.6 hPa | 0 mm | - | - | - |
| 1778081114 | 18.33° C | 59% | 1010.6 hPa | 0 mm | - | - | - |
| 1778080154 | 17.78° C | 60% | 1010.6 hPa | 0 mm | - | - | - |
| 1778079361 | 17.78° C | 61% | 1009.6 hPa | 0 mm | - | - | - |
| 1778079194 | 18.33° C | 62% | 1009.6 hPa | 0 mm | - | - | - |
| 1778078234 | 18.33° C | 64% | 1010 hPa | 0 mm | - | - | - |
| 1778077559 | 18.33° C | 62% | 1010.6 hPa | 0 mm | - | - | - |
* Rain latest hour (hover to see other rain measurements)
** Current wind speed in m/s (hover to see current wind gust speed)